Weather History for Creston, IA

Change the Weather History Date:

Thursday, October 20, 2011

  Actual Average Record
Temperature  
Mean Temperature 40 °F -  
Max Temperature 53 °F 62 °F 87 °F (2003)
Min Temperature 28 °F 39 °F 17 °F (1960)
Degree Days  
Heating Degree Days 24    
Moisture  
Dew Point 27 °F    
Average Humidity 61    
Maximum Humidity 93    
Minimum Humidity 30    
Precipitation  
Precipitation 0.00 in - - ()
Sea Level Pressure  
Sea Level Pressure 29.99 in    
Wind  
Wind Speed 10 mph (NW)    
Max Wind Speed 20 mph    
Max Gust Speed 29 mph    
Visibility 10 miles    
Events      
Averages and records for this station are not official NWS values.
T = Trace of Precipitation, MM = Missing Value Source: NWS Daily Summary

Daily Weather History Graph

Daily Weather History Graph

Search for Another Location

Airport:

Trip Planner

Search our weather history database for the weather conditions in past years. The results will help you decide how hot, cold, wet, or windy it might be!

Date:

Astronomy

Oct. 20, 2011 Rise Set
Actual Time 7:34 AM CDT 6:29 PM CDT
Civil Twilight 7:06 AM CDT 6:57 PM CDT
Nautical Twilight 6:34 AM CDT 7:29 PM CDT
Astronomical Twilight 6:02 AM CDT 8:01 PM CDT
Moon 12:16 AM CDT (10/20) 2:42 PM CDT (10/20)
Length of Visible Light 11h 51m
Length of Day
10h 55m
Last Quarter, 44% of the Moon is Illuminated
Oct 20
Last Quarter
Oct 26
New
Nov 2
First Quarter
Nov 10
Full
Nov 18
Last Quarter

Hourly Weather History & Observations

Time (CDT) Temp. Windchill Dew Point Humidity Pressure Visibility Wind Dir Wind Speed Gust Speed Precip Events Conditions
12:15 AM 39.2 °F 33.6 °F 30.2 °F 70% 29.99 in 10.0 mi NNW 8.1 mph - N/A   Scattered Clouds
12:35 AM 39.2 °F 34.2 °F 28.4 °F 65% 29.99 in 10.0 mi NNW 6.9 mph - N/A   Clear
12:55 AM 37.4 °F 30.8 °F 28.4 °F 70% 29.99 in 10.0 mi NNW 9.2 mph - N/A   Clear
1:15 AM 37.4 °F 30.8 °F 28.4 °F 70% 29.98 in 10.0 mi NNW 9.2 mph - N/A   Clear
1:55 AM 37.4 °F 30.3 °F 28.4 °F 70% 29.97 in 10.0 mi NNW 10.4 mph - N/A   Clear
2:35 AM 35.6 °F 28.6 °F 28.4 °F 75% 29.97 in 10.0 mi NNW 9.2 mph - N/A   Clear
2:55 AM 33.8 °F 26.4 °F 28.4 °F 81% 29.97 in 10.0 mi WNW 9.2 mph - N/A   Clear
3:15 AM 32.0 °F 25.6 °F 26.6 °F 80% 29.97 in 10.0 mi NW 6.9 mph - N/A   Clear
3:35 AM 33.8 °F 27.0 °F 28.4 °F 81% 29.97 in 10.0 mi NW 8.1 mph - N/A   Clear
3:55 AM 32.0 °F 25.6 °F 26.6 °F 80% 29.97 in 10.0 mi NW 6.9 mph - N/A   Clear
4:15 AM 32.0 °F 24.8 °F 26.6 °F 80% 29.97 in 10.0 mi NW 8.1 mph - N/A   Clear
4:35 AM 30.2 °F 22.6 °F 26.6 °F 86% 29.96 in 10.0 mi NW 8.1 mph - N/A   Clear
4:55 AM 30.2 °F 23.4 °F 26.6 °F 86% 29.96 in 10.0 mi NW 6.9 mph - N/A   Clear
5:15 AM 30.2 °F 22.6 °F 26.6 °F 86% 29.96 in 10.0 mi WNW 8.1 mph - N/A   Clear
5:35 AM 30.2 °F 23.4 °F 26.6 °F 86% 29.97 in 10.0 mi WNW 6.9 mph - N/A   Clear
5:55 AM 30.2 °F 22.6 °F 26.6 °F 86% 29.97 in 10.0 mi WNW 8.1 mph - N/A   Clear
6:15 AM 28.4 °F 20.4 °F 26.6 °F 93% 29.97 in 10.0 mi WNW 8.1 mph - N/A   Clear
6:35 AM 28.4 °F 20.4 °F 26.6 °F 93% 29.97 in 10.0 mi NW 8.1 mph - N/A   Clear
6:55 AM 30.2 °F 21.9 °F 26.6 °F 86% 29.97 in 10.0 mi NW 9.2 mph - N/A   Clear
7:15 AM 30.2 °F 22.6 °F 26.6 °F 86% 29.97 in 10.0 mi NW 8.1 mph - N/A   Clear
7:35 AM 30.2 °F 22.6 °F 26.6 °F 86% 29.97 in 10.0 mi NW 8.1 mph - N/A   Clear
7:55 AM 30.2 °F 21.9 °F 26.6 °F 86% 29.98 in 10.0 mi NW 9.2 mph - N/A   Clear
8:15 AM 30.2 °F 22.6 °F 26.6 °F 86% 29.99 in 10.0 mi NW 8.1 mph - N/A   Clear
8:35 AM 33.8 °F 26.4 °F 28.4 °F 81% 29.99 in 10.0 mi NW 9.2 mph - N/A   Clear
8:55 AM 33.8 °F 25.3 °F 28.4 °F 81% 29.99 in 10.0 mi NW 11.5 mph 16.1 mph N/A   Clear
9:15 AM 37.4 °F 28.2 °F 30.2 °F 75% 30.00 in 10.0 mi NNW 16.1 mph 20.7 mph N/A   Clear
9:35 AM 37.4 °F 29.3 °F 30.2 °F 75% 30.00 in 10.0 mi NNW 12.7 mph - N/A   Clear
9:55 AM 41.0 °F 32.8 °F 30.2 °F 65% 30.00 in 10.0 mi NNW 16.1 mph - N/A   Clear
10:15 AM 42.8 °F 36.2 °F 30.2 °F 61% 30.00 in 10.0 mi NNW 12.7 mph - N/A   Clear
10:35 AM 44.6 °F 37.4 °F 30.2 °F 57% 30.01 in 10.0 mi NNW 16.1 mph 21.9 mph N/A   Clear
10:55 AM 46.4 °F 39.2 °F 30.2 °F 53% 30.00 in 10.0 mi NW 18.4 mph 23.0 mph N/A   Clear
11:15 AM 46.4 °F 39.5 °F 28.4 °F 50% 30.00 in 10.0 mi NNW 17.3 mph - N/A   Clear
11:17 AM 46.4 °F 39.5 °F 28.4 °F 50% 30.00 in 10.0 mi NNW 17.3 mph - N/A   Clear
11:35 AM 48.2 °F - 28.4 °F 46% 30.00 in 10.0 mi NW 17.3 mph 24.2 mph N/A   Clear
11:55 AM 48.2 °F - 26.6 °F 43% 29.99 in 10.0 mi NW 18.4 mph 24.2 mph N/A   Clear
12:15 PM 48.2 °F - 26.6 °F 43% 30.00 in 10.0 mi NNW 18.4 mph 23.0 mph N/A   Clear
12:35 PM 50.0 °F - 26.6 °F 40% 29.99 in 10.0 mi NNW 18.4 mph 25.3 mph N/A   Clear
12:55 PM 51.8 °F - 26.6 °F 38% 29.98 in 10.0 mi NW 15.0 mph 28.8 mph N/A   Clear
1:35 PM 51.8 °F - 26.6 °F 38% 29.97 in 10.0 mi WNW 16.1 mph 25.3 mph N/A   Clear
1:55 PM 53.6 °F - 26.6 °F 35% 29.97 in 10.0 mi NW 17.3 mph 23.0 mph N/A   Clear
2:15 PM 53.6 °F - 26.6 °F 35% 29.96 in 10.0 mi WNW 12.7 mph 23.0 mph N/A   Clear
2:35 PM 53.6 °F - 24.8 °F 33% 29.96 in 10.0 mi WNW 19.6 mph 24.2 mph N/A   Clear
2:55 PM 53.6 °F - 24.8 °F 33% 29.96 in 10.0 mi NW 17.3 mph 24.2 mph N/A   Clear
3:15 PM 53.6 °F - 24.8 °F 33% 29.97 in 10.0 mi WNW 17.3 mph 23.0 mph N/A   Clear
3:35 PM 53.6 °F - 24.8 °F 33% 29.97 in 10.0 mi NW 16.1 mph 23.0 mph N/A   Clear
3:55 PM 53.6 °F - 24.8 °F 33% 29.97 in 10.0 mi NW 15.0 mph 19.6 mph N/A   Clear
4:15 PM 53.6 °F - 24.8 °F 33% 29.97 in 10.0 mi NW 15.0 mph - N/A   Clear
4:35 PM 53.6 °F - 23.0 °F 30% 29.97 in 10.0 mi WNW 15.0 mph 18.4 mph N/A   Clear
4:55 PM 51.8 °F - 23.0 °F 33% 29.98 in 10.0 mi NW 15.0 mph - N/A   Clear
5:15 PM 51.8 °F - 24.8 °F 35% 29.98 in 10.0 mi NW 15.0 mph 19.6 mph N/A   Clear
5:35 PM 51.8 °F - 24.8 °F 35% 29.99 in 10.0 mi NW 12.7 mph - N/A   Clear
5:55 PM 50.0 °F - 24.8 °F 37% 29.99 in 10.0 mi NW 9.2 mph 18.4 mph N/A   Clear
6:15 PM 48.2 °F - 26.6 °F 43% 30.00 in 10.0 mi WNW 9.2 mph - N/A   Clear
6:35 PM 44.6 °F 40.7 °F 26.6 °F 49% 30.00 in 10.0 mi WNW 6.9 mph - N/A   Clear
7:15 PM 41.0 °F 36.4 °F 26.6 °F 57% 30.01 in 10.0 mi WNW 6.9 mph - N/A   Clear
7:35 PM 39.2 °F 33.6 °F 26.6 °F 61% 30.01 in 10.0 mi WNW 8.1 mph - N/A   Clear
7:55 PM 39.2 °F 34.2 °F 26.6 °F 61% 30.02 in 10.0 mi West 6.9 mph - N/A   Clear
8:15 PM 39.2 °F 34.2 °F 26.6 °F 61% 30.02 in 10.0 mi WNW 6.9 mph - N/A   Clear
8:35 PM 37.4 °F 32.1 °F 26.6 °F 65% 30.02 in 10.0 mi West 6.9 mph - N/A   Clear
8:55 PM 39.2 °F 35.0 °F 26.6 °F 61% 30.02 in 10.0 mi West 5.8 mph - N/A   Clear
9:35 PM 35.6 °F 30.7 °F 26.6 °F 70% 30.03 in 10.0 mi West 5.8 mph - N/A   Clear
9:55 PM 35.6 °F 30.7 °F 26.6 °F 70% 30.04 in 10.0 mi West 5.8 mph - N/A   Clear
10:15 PM 35.6 °F 29.9 °F 26.6 °F 70% 30.04 in 10.0 mi West 6.9 mph - N/A   Clear
10:35 PM 35.6 °F 29.9 °F 26.6 °F 70% 30.05 in 10.0 mi West 6.9 mph - N/A   Clear
10:55 PM 35.6 °F 30.7 °F 26.6 °F 70% 30.05 in 10.0 mi West 5.8 mph - N/A   Clear
11:15 PM 35.6 °F 30.7 °F 26.6 °F 70% 30.06 in 10.0 mi WNW 5.8 mph - N/A   Clear
11:35 PM 35.6 °F 30.7 °F 26.6 °F 70% 30.06 in 10.0 mi WNW 5.8 mph - N/A   Clear
11:55 PM 33.8 °F 29.6 °F 26.6 °F 75% 30.07 in 10.0 mi West 4.6 mph - N/A   Clear